| time (UTC) | temp F | wind direction | speed MPH | gust MPH | rain 1hr in | rain 24hr in | rain mn in | humidity % | barometer mb |
| 20260902212515 | 69 | 0.0 | 0.0 | 0.00 | 0.01 | 0.00 | 74 | 1017.8 | |
| 20260902212015 | 69 | 0.0 | 0.0 | 0.00 | 0.01 | 0.00 | 74 | 1017.9 | |
| 20260902211515 | 69 | 0.0 | 2.0 | 0.00 | 0.01 | 0.00 | 74 | 1017.9 | |
| 20260902211015 | 69 | 260 | 0.0 | 2.0 | 0.00 | 0.02 | 0.00 | 73 | 1017.8 |
| 20260902210515 | 69 | 149 | 0.0 | 3.0 | 0.00 | 0.02 | 0.00 | 73 | 1017.7 |
| 20260902210015 | 69 | 9 | 1.0 | 3.0 | 0.00 | 0.02 | 0.00 | 74 | 1017.5 |
| 20260902205515 | 69 | 331 | 0.0 | 4.0 | 0.00 | 0.03 | 0.00 | 74 | 1017.6 |
| 20260902205035 | 69 | 160 | 0.0 | 4.0 | 0.00 | 0.03 | 0.00 | 74 | 1017.7 |
| 20260902204515 | 69 | 309 | 0.0 | 2.0 | 0.00 | 0.03 | 0.00 | 74 | 1017.9 |
| 20260902204015 | 70 | 208 | 0.0 | 2.0 | 0.00 | 0.03 | 0.00 | 74 | 1017.9 |
| 20260902203535 | 70 | 209 | 0.0 | 2.0 | 0.00 | 0.03 | 0.00 | 74 | 1018.0 |
| 20260902203015 | 70 | 202 | 0.0 | 3.0 | 0.00 | 0.03 | 0.00 | 74 | 1018.1 |
| 20260902202515 | 70 | 216 | 0.0 | 3.0 | 0.00 | 0.04 | 0.00 | 74 | 1018.2 |
| 20260902202015 | 71 | 0.0 | 9.0 | 0.00 | 0.04 | 0.00 | 73 | 1018.2 | |
| 20260902201515 | 71 | 180 | 1.0 | 9.0 | 0.00 | 0.05 | 0.00 | 71 | 1018.2 |
| 20260902201015 | 71 | 295 | 1.0 | 8.0 | 0.00 | 0.05 | 0.00 | 70 | 1018.2 |
| 20260902200515 | 71 | 51 | 2.0 | 8.0 | 0.00 | 0.05 | 0.00 | 72 | 1018.3 |
| 20260902200015 | 71 | 212 | 1.0 | 6.0 | 0.00 | 0.06 | 0.00 | 70 | 1018.4 |
| 20260902195515 | 71 | 109 | 1.0 | 6.0 | 0.00 | 0.06 | 0.00 | 72 | 1018.3 |
| 20260902195015 | 71 | 193 | 1.0 | 4.0 | 0.00 | 0.07 | 0.00 | 72 | 1018.3 |
| 20260902194515 | 71 | 162 | 1.0 | 4.0 | 0.00 | 0.07 | 0.00 | 73 | 1018.4 |
| 20260902194015 | 71 | 314 | 0.0 | 3.0 | 0.00 | 0.07 | 0.00 | 74 | 1018.5 |
| 20260902193515 | 71 | 308 | 0.0 | 2.0 | 0.00 | 0.09 | 0.00 | 74 | 1018.5 |
| 20260902193015 | 71 | 0.0 | 1.0 | 0.00 | 0.09 | 0.00 | 74 | 1018.6 | |
| 20260902192555 | 71 | 326 | 0.0 | 2.0 | 0.00 | 0.09 | 0.00 | 74 | 1018.7 |
| 20260902192015 | 71 | 319 | 0.0 | 2.0 | 0.00 | 0.10 | 0.00 | 74 | 1018.7 |
| 20260902191515 | 71 | 302 | 0.0 | 2.0 | 0.00 | 0.11 | 0.00 | 74 | 1018.7 |
| 20260902191015 | 71 | 274 | 0.0 | 3.0 | 0.00 | 0.11 | 0.00 | 73 | 1018.7 |
| 20260902190515 | 71 | 90 | 0.0 | 3.0 | 0.00 | 0.11 | 0.00 | 74 | 1018.8 |
| 20260902190015 | 71 | 0.0 | 2.0 | 0.00 | 0.12 | 0.00 | 74 | 1018.8 | |
| 20260902185535 | 71 | 56 | 0.0 | 5.0 | 0.00 | 0.13 | 0.00 | 73 | 1018.7 |
| 20260902185115 | 71 | 209 | 1.0 | 5.0 | 0.00 | 0.13 | 0.00 | 74 | 1018.7 |
| 20260902184515 | 71 | 138 | 1.0 | 4.0 | 0.00 | 0.13 | 0.00 | 73 | 1018.6 |
| 20260902184015 | 71 | 14 | 0.0 | 3.0 | 0.00 | 0.14 | 0.00 | 74 | 1018.6 |
| 20260902183515 | 71 | 224 | 0.0 | 3.0 | 0.00 | 0.14 | 0.00 | 73 | 1018.6 |
| 20260902183015 | 71 | 23 | 0.0 | 6.0 | 0.00 | 0.15 | 0.00 | 73 | 1018.7 |
| 20260902182515 | 71 | 201 | 1.0 | 6.0 | 0.00 | 0.15 | 0.00 | 73 | 1018.7 |
| 20260902182015 | 71 | 200 | 0.0 | 2.0 | 0.00 | 0.16 | 0.00 | 73 | 1018.7 |
| 20260902181515 | 71 | 205 | 0.0 | 2.0 | 0.00 | 0.17 | 0.00 | 73 | 1018.7 |
| 20260902181015 | 71 | 0.0 | 2.0 | 0.00 | 0.18 | 0.00 | 69 | 1018.7 | |
| 20260902180515 | 70 | 150 | 0.0 | 2.0 | 0.00 | 0.19 | 0.00 | 71 | 1018.7 |
| 20260902180035 | 70 | 261 | 0.0 | 2.0 | 0.00 | 0.19 | 0.00 | 69 | 1018.7 |
| 20260902175515 | 71 | 198 | 0.0 | 2.0 | 0.00 | 0.19 | 0.00 | 69 | 1018.8 |
| 20260902175015 | 71 | 221 | 0.0 | 2.0 | 0.00 | 0.19 | 0.00 | 71 | 1018.7 |
| 20260902174515 | 71 | 207 | 0.0 | 2.0 | 0.00 | 0.19 | 0.00 | 71 | 1018.7 |
| 20260902174015 | 71 | 0.0 | 1.0 | 0.00 | 0.19 | 0.00 | 70 | 1018.7 | |
| 20260902173515 | 71 | 198 | 0.0 | 2.0 | 0.00 | 0.19 | 0.00 | 71 | 1018.7 |
| 20260902173015 | 71 | 182 | 0.0 | 4.0 | 0.00 | 0.19 | 0.00 | 72 | 1018.7 |
| 20260902172535 | 71 | 170 | 0.0 | 4.0 | 0.00 | 0.19 | 0.00 | 71 | 1018.7 |
| 20260902172035 | 71 | 231 | 1.0 | 4.0 | 0.00 | 0.19 | 0.00 | 70 | 1018.7 |
| 20260902171515 | 71 | 36 | 0.0 | 3.0 | 0.00 | 0.19 | 0.00 | 69 | 1018.7 |
| 20260902171015 | 71 | 345 | 0.0 | 2.0 | 0.00 | 0.19 | 0.00 | 71 | 1018.8 |
| 20260902170555 | 71 | 315 | 0.0 | 5.0 | 0.00 | 0.19 | 0.00 | 67 | 1018.8 |
| 20260902170035 | 71 | 354 | 1.0 | 5.0 | 0.00 | 0.20 | 0.00 | 70 | 1018.9 |
| 20260902165515 | 71 | 346 | 1.0 | 3.0 | 0.00 | 0.20 | 0.00 | 72 | 1019.0 |
| 20260902165015 | 71 | 309 | 0.0 | 4.0 | 0.00 | 0.21 | 0.00 | 67 | 1019.0 |
| 20260902164515 | 70 | 205 | 1.0 | 4.0 | 0.00 | 0.21 | 0.00 | 71 | 1019.0 |
| 20260902164015 | 70 | 49 | 0.0 | 3.0 | 0.00 | 0.22 | 0.00 | 71 | 1019.1 |
| 20260902163515 | 70 | 162 | 0.0 | 3.0 | 0.00 | 0.23 | 0.00 | 72 | 1019.2 |
| 20260902163017 | 70 | 337 | 0.0 | 3.0 | 0.00 | 0.23 | 0.00 | 70 | 1019.3 |
| 20260902162517 | 70 | 306 | 1.0 | 3.0 | 0.00 | 0.23 | 0.00 | 69 | 1019.4 |
| 20260902162017 | 70 | 258 | 1.0 | 3.0 | 0.00 | 0.23 | 0.00 | 68 | 1019.4 |
| 20260902161516 | 69 | 198 | 0.0 | 3.0 | 0.00 | 0.23 | 0.00 | 54 | 1019.4 |
| 20260902161017 | 69 | 317 | 0.0 | 2.0 | 0.00 | 0.23 | 0.00 | 54 | 1019.6 |
| 20260902160516 | 69 | 312 | 0.0 | 2.0 | 0.00 | 0.23 | 0.00 | 54 | 1019.7 |
| 20260902160037 | 69 | 0.0 | 4.0 | 0.00 | 0.23 | 0.00 | 54 | 1019.7 | |
| 20260902155516 | 69 | 250 | 1.0 | 4.0 | 0.00 | 0.23 | 0.00 | 59 | 1019.6 |
| 20260902155016 | 68 | 187 | 1.0 | 5.0 | 0.00 | 0.23 | 0.00 | 54 | 1019.6 |
| 20260902154536 | 68 | 185 | 0.0 | 5.0 | 0.00 | 0.23 | 0.00 | 44 | 1019.7 |
| 20260902154036 | 68 | 327 | 0.0 | 1.0 | 0.00 | 0.23 | 0.00 | 40 | 1019.8 |
| 20260902153517 | 68 | 334 | 0.0 | 1.0 | 0.00 | 0.23 | 0.00 | 43 | 1019.8 |
| 20260902153017 | 68 | 0.0 | 1.0 | 0.00 | 0.23 | 0.00 | 34 | 1020.0 | |
| 20260902152517 | 68 | 338 | 0.0 | 4.0 | 0.00 | 0.23 | 0.00 | 38 | 1019.9 |
| 20260902152036 | 68 | 220 | 0.0 | 4.0 | 0.00 | 0.23 | 0.00 | 39 | 1019.9 |
| 20260902151516 | 67 | 0.0 | 3.0 | 0.00 | 0.23 | 0.00 | 35 | 1020.0 | |
| 20260902151017 | 67 | 198 | 0.0 | 3.0 | 0.00 | 0.23 | 0.00 | 29 | 1020.0 |
| 20260902150516 | 67 | 214 | 0.0 | 3.0 | 0.00 | 0.23 | 0.00 | 25 | 1019.9 |
| 20260902150037 | 67 | 0.0 | 0.0 | 0.00 | 0.23 | 0.00 | 16 | 1019.9 | |
| 20260902145534 | 67 | 0.0 | 0.0 | 0.00 | 0.23 | 0.00 | 18 | 1020.0 | |
| 20260902145016 | 66 | 0.0 | 0.0 | 0.00 | 0.23 | 0.00 | 14 | 1020.2 | |
| 20260902144516 | 66 | 0.0 | 1.0 | 0.00 | 0.23 | 0.00 | 9 | 1020.1 | |
| 20260902144036 | 66 | 212 | 0.0 | 1.0 | 0.00 | 0.23 | 0.00 | 9 | 1020.1 |
| 20260902143516 | 66 | 0.0 | 1.0 | 0.00 | 0.23 | 0.00 | 7 | 1020.0 | |
| 20260902143016 | 65 | 212 | 0.0 | 2.0 | 0.00 | 0.23 | 0.00 | 8 | 1019.8 |
| 20260902142536 | 65 | 188 | 0.0 | 2.0 | 0.00 | 0.23 | 0.00 | 7 | 1019.8 |
| 20260902142016 | 65 | 190 | 0.0 | 1.0 | 0.00 | 0.23 | 0.00 | 7 | 1019.7 |
| 20260902141516 | 65 | 0.0 | 2.0 | 0.00 | 0.23 | 0.00 | 7 | 1019.7 | |
| 20260902141016 | 65 | 196 | 0.0 | 2.0 | 0.00 | 0.23 | 0.00 | 8 | 1019.8 |
| 20260902140516 | 65 | 0.0 | 1.0 | 0.00 | 0.23 | 0.00 | 8 | 1019.7 | |
| 20260902140037 | 65 | 332 | 0.0 | 3.0 | 0.00 | 0.23 | 0.00 | 9 | 1019.5 |
| 20260902135516 | 65 | 331 | 0.0 | 3.0 | 0.00 | 0.23 | 0.00 | 9 | 1019.3 |
| 20260902135016 | 65 | 293 | 0.0 | 2.0 | 0.00 | 0.23 | 0.00 | 9 | 1019.1 |
| 20260902134517 | 64 | 229 | 0.0 | 2.0 | 0.00 | 0.23 | 0.00 | 10 | 1019.3 |
| 20260902134016 | 64 | 0.0 | 0.0 | 0.00 | 0.23 | 0.00 | 10 | 1019.3 | |
| 20260902133516 | 64 | 0.0 | 1.0 | 0.00 | 0.23 | 0.00 | 10 | 1019.3 | |
| 20260902133016 | 64 | 349 | 0.0 | 1.0 | 0.00 | 0.23 | 0.00 | 10 | 1019.3 |
| 20260902132536 | 64 | 349 | 0.0 | 2.0 | 0.00 | 0.23 | 0.00 | 10 | 1019.2 |
| 20260902132016 | 64 | 329 | 0.0 | 2.0 | 0.00 | 0.23 | 0.00 | 10 | 1019.2 |
| 20260902131516 | 64 | 355 | 0.0 | 1.0 | 0.00 | 0.23 | 0.00 | 10 | 1019.1 |
| 20260902131016 | 64 | 0.0 | 0.0 | 0.00 | 0.23 | 0.00 | 10 | 1019.3 | |
| 20260902130516 | 64 | 0.0 | 0.0 | 0.00 | 0.23 | 0.00 | 10 | 1019.4 | |
| 20260902130016 | 63 | 0.0 | 0.0 | 0.00 | 0.23 | 0.00 | 11 | 1019.5 | |
| 20260902125516 | 63 | 0.0 | 0.0 | 0.00 | 0.24 | 0.00 | 11 | 1019.6 | |
| 20260902125016 | 63 | 0.0 | 0.0 | 0.00 | 0.24 | 0.00 | 11 | 1019.6 | |
| 20260902124516 | 63 | 0.0 | 0.0 | 0.00 | 0.25 | 0.00 | 11 | 1019.5 | |
| 20260902124036 | 63 | 0.0 | 0.0 | 0.00 | 0.25 | 0.00 | 11 | 1019.5 | |
| 20260902123516 | 63 | 0.0 | 0.0 | 0.00 | 0.26 | 0.00 | 11 | 1019.5 | |
| 20260902123036 | 63 | 0.0 | 0.0 | 0.00 | 0.27 | 0.00 | 11 | 1019.7 | |
| 20260902122516 | 63 | 0.0 | 0.0 | 0.00 | 0.28 | 0.00 | 11 | 1019.7 | |
| 20260902122016 | 62 | 0.0 | 0.0 | 0.00 | 0.29 | 0.00 | 11 | 1019.6 | |
| 20260902121516 | 62 | 0.0 | 0.0 | 0.00 | 0.31 | 0.00 | 11 | 1019.5 | |
| 20260902121016 | 62 | 0.0 | 0.0 | 0.00 | 0.32 | 0.00 | 11 | 1019.5 | |
| 20260902120516 | 62 | 0.0 | 0.0 | 0.00 | 0.32 | 0.00 | 11 | 1019.6 | |
| 20260902120016 | 62 | 0.0 | 0.0 | 0.00 | 0.32 | 0.00 | 11 | 1019.6 | |
| 20260902115537 | 62 | 0.0 | 0.0 | 0.00 | 0.33 | 0.00 | 11 | 1019.7 | |
| 20260902115016 | 62 | 0.0 | 0.0 | 0.00 | 0.33 | 0.00 | 11 | 1019.7 | |
| 20260902114516 | 62 | 0.0 | 0.0 | 0.00 | 0.34 | 0.00 | 11 | 1019.7 | |
| 20260902114016 | 62 | 0.0 | 0.0 | 0.00 | 0.34 | 0.00 | 11 | 1019.7 | |
| 20260902113516 | 62 | 0.0 | 0.0 | 0.00 | 0.34 | 0.00 | 11 | 1019.8 | |
| 20260902113016 | 62 | 0.0 | 0.0 | 0.00 | 0.34 | 0.00 | 11 | 1019.8 | |
| 20260902112516 | 62 | 0.0 | 0.0 | 0.00 | 0.34 | 0.00 | 11 | 1019.8 | |
| 20260902112016 | 62 | 0.0 | 0.0 | 0.00 | 0.34 | 0.00 | 11 | 1019.7 | |
| 20260902111536 | 62 | 0.0 | 0.0 | 0.00 | 0.34 | 0.00 | 11 | 1019.6 | |
| 20260902111016 | 61 | 0.0 | 0.0 | 0.00 | 0.34 | 0.00 | 11 | 1019.5 | |
| 20260902110536 | 61 | 0.0 | 0.0 | 0.00 | 0.34 | 0.00 | 11 | 1019.5 | |
| 20260902110016 | 61 | 0.0 | 0.0 | 0.00 | 0.34 | 0.00 | 11 | 1019.6 | |
| 20260902105536 | 61 | 0.0 | 0.0 | 0.00 | 0.34 | 0.00 | 11 | 1019.5 | |
| 20260902105016 | 61 | 0.0 | 0.0 | 0.00 | 0.34 | 0.00 | 11 | 1019.4 | |
| 20260902104536 | 61 | 0.0 | 0.0 | 0.00 | 0.34 | 0.00 | 11 | 1019.3 | |
| 20260902104016 | 61 | 0.0 | 0.0 | 0.00 | 0.35 | 0.00 | 11 | 1019.1 | |
| 20260902103556 | 61 | 0.0 | 0.0 | 0.00 | 0.35 | 0.00 | 11 | 1019.0 | |
| 20260902103016 | 61 | 0.0 | 0.0 | 0.00 | 0.35 | 0.00 | 11 | 1019.0 | |
| 20260902102516 | 61 | 0.0 | 0.0 | 0.00 | 0.35 | 0.00 | 11 | 1019.0 | |
| 20260902102016 | 61 | 0.0 | 0.0 | 0.00 | 0.35 | 0.00 | 12 | 1018.9 | |
| 20260902101516 | 61 | 0.0 | 0.0 | 0.00 | 0.35 | 0.00 | 12 | 1019.0 | |
| 20260902101036 | 61 | 0.0 | 0.0 | 0.00 | 0.35 | 0.00 | 12 | 1018.9 | |
| 20260902100516 | 61 | 0.0 | 0.0 | 0.00 | 0.35 | 0.00 | 12 | 1018.9 | |
| 20260902100016 | 61 | 0.0 | 0.0 | 0.00 | 0.35 | 0.00 | 12 | 1018.8 | |
| 20260902095516 | 61 | 0.0 | 0.0 | 0.00 | 0.36 | 0.00 | 12 | 1018.8 | |
| 20260902095016 | 61 | 0.0 | 0.0 | 0.00 | 0.36 | 0.00 | 12 | 1018.7 | |
| 20260902094516 | 61 | 0.0 | 0.0 | 0.00 | 0.36 | 0.00 | 12 | 1018.7 | |
| 20260902094036 | 61 | 0.0 | 0.0 | 0.00 | 0.36 | 0.00 | 12 | 1018.6 | |
| 20260902093516 | 61 | 0.0 | 0.0 | 0.00 | 0.36 | 0.00 | 12 | 1018.6 | |
| 20260902093016 | 61 | 0.0 | 0.0 | 0.00 | 0.36 | 0.00 | 12 | 1018.5 | |
| 20260902092536 | 61 | 0.0 | 0.0 | 0.00 | 0.36 | 0.00 | 12 | 1018.5 | |
| 20260902092016 | 61 | 0.0 | 0.0 | 0.00 | 0.36 | 0.00 | 12 | 1018.5 | |
| 20260902091515 | 61 | 0.0 | 0.0 | 0.00 | 0.36 | 0.00 | 11 | 1018.4 | |
| 20260902091015 | 61 | 0.0 | 0.0 | 0.00 | 0.36 | 0.00 | 11 | 1018.3 | |
| 20260902090515 | 61 | 0.0 | 0.0 | 0.00 | 0.36 | 0.00 | 11 | 1018.4 | |
| 20260902090015 | 61 | 0.0 | 0.0 | 0.00 | 0.36 | 0.00 | 11 | 1018.3 | |
| 20260902085516 | 61 | 0.0 | 0.0 | 0.00 | 0.36 | 0.00 | 11 | 1018.2 | |
| 20260902085016 | 61 | 0.0 | 0.0 | 0.00 | 0.36 | 0.00 | 11 | 1018.2 | |
| 20260902084536 | 61 | 0.0 | 0.0 | 0.00 | 0.36 | 0.00 | 11 | 1018.1 | |
| 20260902084015 | 61 | 0.0 | 0.0 | 0.00 | 0.36 | 0.00 | 11 | 1018.2 | |
| 20260902083515 | 61 | 0.0 | 0.0 | 0.00 | 0.36 | 0.00 | 11 | 1018.2 | |
| 20260902083036 | 61 | 0.0 | 0.0 | 0.00 | 0.36 | 0.00 | 11 | 1018.1 | |
| 20260902082515 | 61 | 0.0 | 0.0 | 0.00 | 0.36 | 0.00 | 11 | 1018.1 | |
| 20260902082016 | 62 | 0.0 | 0.0 | 0.00 | 0.36 | 0.00 | 11 | 1018.2 | |
| 20260902081516 | 62 | 0.0 | 0.0 | 0.00 | 0.36 | 0.00 | 11 | 1018.3 | |
| 20260902081015 | 62 | 0.0 | 0.0 | 0.00 | 0.36 | 0.00 | 11 | 1018.4 | |
| 20260902080515 | 62 | 0.0 | 0.0 | 0.00 | 0.36 | 0.00 | 11 | 1018.4 | |
| 20260902080015 | 62 | 0.0 | 0.0 | 0.00 | 0.36 | 0.00 | 12 | 1018.4 | |
| 20260902075515 | 62 | 0.0 | 0.0 | 0.00 | 0.36 | 0.00 | 12 | 1018.4 | |
| 20260902075016 | 62 | 0.0 | 0.0 | 0.00 | 0.36 | 0.00 | 12 | 1018.4 | |
| 20260902074515 | 62 | 0.0 | 0.0 | 0.00 | 0.36 | 0.00 | 12 | 1018.4 | |
| 20260902074015 | 62 | 0.0 | 0.0 | 0.00 | 0.36 | 0.00 | 12 | 1018.4 | |
| 20260902073515 | 62 | 0.0 | 0.0 | 0.00 | 0.36 | 0.00 | 12 | 1018.4 | |
| 20260902073015 | 61 | 0.0 | 0.0 | 0.00 | 0.36 | 0.00 | 12 | 1018.5 | |
| 20260902072515 | 61 | 0.0 | 0.0 | 0.00 | 0.36 | 0.00 | 12 | 1018.6 | |
| 20260902072036 | 61 | 0.0 | 0.0 | 0.00 | 0.36 | 0.00 | 12 | 1018.6 | |
| 20260902071516 | 61 | 0.0 | 0.0 | 0.00 | 0.36 | 0.00 | 12 | 1018.5 | |
| 20260902071015 | 61 | 0.0 | 0.0 | 0.00 | 0.36 | 0.00 | 12 | 1018.4 | |
| 20260902070536 | 61 | 0.0 | 0.0 | 0.00 | 0.36 | 0.00 | 12 | 1018.3 | |
| 20260902070015 | 61 | 0.0 | 0.0 | 0.00 | 0.36 | 0.00 | 12 | 1018.2 | |
| 20260902065515 | 61 | 0.0 | 0.0 | 0.00 | 0.36 | 0.00 | 12 | 1018.2 | |
| 20260902065015 | 61 | 0.0 | 0.0 | 0.00 | 0.36 | 0.00 | 12 | 1018.1 | |
| 20260902064515 | 61 | 0.0 | 0.0 | 0.00 | 0.36 | 0.00 | 12 | 1018.1 | |
| 20260902064055 | 61 | 0.0 | 0.0 | 0.00 | 0.36 | 0.00 | 12 | 1018.1 | |
| 20260902063515 | 61 | 0.0 | 0.0 | 0.00 | 0.36 | 0.00 | 12 | 1018.2 | |
| 20260902063015 | 61 | 0.0 | 0.0 | 0.00 | 0.36 | 0.00 | 12 | 1018.2 | |
| 20260902062515 | 61 | 0.0 | 0.0 | 0.00 | 0.36 | 0.00 | 12 | 1018.2 | |
| 20260902062015 | 61 | 0.0 | 0.0 | 0.00 | 0.36 | 0.00 | 12 | 1018.3 | |
| 20260902061515 | 61 | 0.0 | 0.0 | 0.00 | 0.36 | 0.00 | 12 | 1018.3 | |
| 20260902061015 | 61 | 0.0 | 0.0 | 0.00 | 0.36 | 0.00 | 12 | 1018.2 | |
| 20260902060515 | 61 | 0.0 | 0.0 | 0.00 | 0.36 | 0.00 | 12 | 1018.3 | |
| 20260902060015 | 61 | 0.0 | 0.0 | 0.00 | 0.36 | 0.00 | 12 | 1018.3 | |
| 20260902055515 | 61 | 0.0 | 0.0 | 0.00 | 0.36 | 0.00 | 12 | 1018.2 | |
| 20260902055015 | 61 | 0.0 | 0.0 | 0.00 | 0.36 | 0.00 | 12 | 1018.2 | |
| 20260902054515 | 61 | 0.0 | 0.0 | 0.00 | 0.36 | 0.00 | 12 | 1018.3 | |
| 20260902054015 | 61 | 0.0 | 0.0 | 0.00 | 0.36 | 0.00 | 12 | 1018.2 | |
| 20260902053515 | 61 | 0.0 | 0.0 | 0.00 | 0.36 | 0.00 | 12 | 1018.1 | |
| 20260902053015 | 61 | 0.0 | 0.0 | 0.00 | 0.36 | 0.00 | 12 | 1018.1 | |
| 20260902052535 | 61 | 0.0 | 0.0 | 0.00 | 0.36 | 0.00 | 12 | 1018.2 | |
| 20260902052015 | 61 | 0.0 | 0.0 | 0.00 | 0.36 | 0.00 | 12 | 1018.2 | |
| 20260902051515 | 61 | 0.0 | 0.0 | 0.00 | 0.36 | 0.00 | 12 | 1018.1 | |
| 20260902051015 | 61 | 0.0 | 0.0 | 0.00 | 0.36 | 0.00 | 12 | 1018.0 | |
| 20260902050515 | 61 | 0.0 | 0.0 | 0.00 | 0.36 | 0.00 | 12 | 1017.9 | |
| 20260902050015 | 61 | 0.0 | 0.0 | 0.00 | 0.36 | 0.00 | 12 | 1017.8 | |
| 20260902045515 | 61 | 0.0 | 0.0 | 0.00 | 0.36 | 0.00 | 12 | 1017.8 | |
| 20260902045015 | 61 | 0.0 | 0.0 | 0.00 | 0.36 | 0.00 | 12 | 1017.7 | |
| 20260902044515 | 61 | 0.0 | 0.0 | 0.00 | 0.36 | 0.00 | 12 | 1017.5 | |
| 20260902044035 | 61 | 0.0 | 0.0 | 0.00 | 0.36 | 0.00 | 12 | 1017.5 | |
| 20260902043515 | 61 | 0.0 | 0.0 | 0.00 | 0.36 | 0.00 | 12 | 1017.4 | |
| 20260902043015 | 61 | 0.0 | 0.0 | 0.00 | 0.36 | 0.00 | 12 | 1017.3 | |
| 20260902042515 | 61 | 0.0 | 0.0 | 0.00 | 0.36 | 0.00 | 12 | 1017.3 | |
| 20260902042015 | 61 | 0.0 | 0.0 | 0.00 | 0.36 | 0.00 | 12 | 1017.3 | |
| 20260902041515 | 61 | 0.0 | 0.0 | 0.00 | 0.36 | 0.00 | 12 | 1017.3 | |
| 20260902041015 | 61 | 0.0 | 0.0 | 0.00 | 0.36 | 0.00 | 12 | 1017.3 | |
| 20260902040515 | 61 | 0.0 | 0.0 | 0.00 | 0.36 | 0.00 | 12 | 1017.2 | |
| 20260902040015 | 61 | 0.0 | 0.0 | 0.00 | 0.36 | 0.36 | 12 | 1017.2 | |
| 20260902035517 | 61 | 0.0 | 0.0 | 0.00 | 0.36 | 0.36 | 12 | 1017.1 | |
| 20260902035017 | 61 | 0.0 | 0.0 | 0.00 | 0.36 | 0.36 | 12 | 1017.0 | |
| 20260902034517 | 61 | 0.0 | 0.0 | 0.00 | 0.36 | 0.36 | 12 | 1016.8 | |
| 20260902034016 | 61 | 0.0 | 0.0 | 0.00 | 0.36 | 0.36 | 12 | 1016.6 | |
| 20260902033516 | 61 | 0.0 | 0.0 | 0.00 | 0.36 | 0.36 | 12 | 1016.5 | |
| 20260902033017 | 62 | 0.0 | 0.0 | 0.00 | 0.36 | 0.36 | 12 | 1016.5 | |
| 20260902032516 | 62 | 0.0 | 0.0 | 0.00 | 0.36 | 0.36 | 12 | 1016.5 | |
| 20260902032016 | 62 | 0.0 | 0.0 | 0.00 | 0.36 | 0.36 | 12 | 1016.6 | |
| 20260902031517 | 62 | 0.0 | 0.0 | 0.00 | 0.36 | 0.36 | 11 | 1016.7 | |
| 20260902031016 | 62 | 0.0 | 0.0 | 0.00 | 0.36 | 0.36 | 11 | 1016.7 | |
| 20260902030516 | 62 | 0.0 | 0.0 | 0.00 | 0.36 | 0.36 | 11 | 1016.8 | |
| 20260902030016 | 62 | 0.0 | 0.0 | 0.00 | 0.36 | 0.36 | 11 | 1016.8 | |
| 20260902025516 | 62 | 0.0 | 0.0 | 0.00 | 0.36 | 0.36 | 11 | 1016.9 | |
| 20260902025016 | 62 | 0.0 | 0.0 | 0.00 | 0.36 | 0.36 | 11 | 1016.8 | |
| 20260902024516 | 62 | 0.0 | 0.0 | 0.00 | 0.36 | 0.36 | 11 | 1016.7 | |
| 20260902024017 | 62 | 0.0 | 0.0 | 0.00 | 0.36 | 0.36 | 11 | 1016.8 | |
| 20260902023516 | 62 | 0.0 | 0.0 | 0.00 | 0.36 | 0.36 | 11 | 1016.9 | |
| 20260902023036 | 62 | 0.0 | 0.0 | 0.00 | 0.36 | 0.36 | 11 | 1016.9 | |
| 20260902022517 | 62 | 0.0 | 0.0 | 0.00 | 0.36 | 0.36 | 11 | 1016.9 | |
| 20260902022017 | 62 | 0.0 | 0.0 | 0.00 | 0.36 | 0.36 | 11 | 1017.1 | |
| 20260902021516 | 62 | 0.0 | 0.0 | 0.00 | 0.36 | 0.36 | 11 | 1017.1 | |
| 20260902021016 | 62 | 0.0 | 0.0 | 0.00 | 0.36 | 0.36 | 11 | 1017.1 | |
| 20260902020517 | 62 | 0.0 | 0.0 | 0.00 | 0.36 | 0.36 | 11 | 1017.1 | |
| 20260902020016 | 62 | 0.0 | 0.0 | 0.00 | 0.36 | 0.36 | 11 | 1017.2 | |
| 20260902015516 | 62 | 0.0 | 0.0 | 0.00 | 0.36 | 0.36 | 11 | 1017.0 | |
| 20260902015016 | 62 | 0.0 | 0.0 | 0.00 | 0.36 | 0.36 | 11 | 1016.9 | |
| 20260902014536 | 62 | 0.0 | 0.0 | 0.00 | 0.36 | 0.36 | 11 | 1016.9 | |
| 20260902014016 | 62 | 0.0 | 0.0 | 0.00 | 0.36 | 0.36 | 11 | 1017.0 | |
| 20260902013516 | 62 | 0.0 | 0.0 | 0.00 | 0.36 | 0.36 | 11 | 1016.9 | |
| 20260902013016 | 62 | 0.0 | 0.0 | 0.00 | 0.36 | 0.36 | 11 | 1016.8 | |
| 20260902012516 | 62 | 0.0 | 0.0 | 0.00 | 0.36 | 0.36 | 11 | 1016.9 | |
| 20260902012016 | 62 | 0.0 | 0.0 | 0.00 | 0.36 | 0.36 | 11 | 1016.9 | |
| 20260902011516 | 62 | 0.0 | 0.0 | 0.00 | 0.36 | 0.36 | 11 | 1016.8 | |
| 20260902011016 | 62 | 0.0 | 0.0 | 0.00 | 0.36 | 0.36 | 11 | 1016.8 | |
| 20260902010516 | 62 | 0.0 | 0.0 | 0.00 | 0.36 | 0.36 | 11 | 1016.9 | |
| 20260902010036 | 62 | 0.0 | 0.0 | 0.00 | 0.36 | 0.36 | 11 | 1016.9 | |
| 20260902005556 | 62 | 0.0 | 0.0 | 0.00 | 0.36 | 0.36 | 11 | 1016.7 | |
| 20260902005036 | 62 | 0.0 | 0.0 | 0.00 | 0.36 | 0.36 | 11 | 1016.7 | |
| 20260902004536 | 62 | 0.0 | 0.0 | 0.00 | 0.36 | 0.36 | 11 | 1016.7 | |
| 20260902004016 | 62 | 0.0 | 0.0 | 0.00 | 0.36 | 0.36 | 11 | 1016.5 | |
| 20260902003556 | 62 | 0.0 | 0.0 | 0.00 | 0.36 | 0.36 | 11 | 1016.5 | |
| 20260902003016 | 63 | 0.0 | 0.0 | 0.00 | 0.36 | 0.36 | 11 | 1016.4 | |
| 20260902002536 | 63 | 0.0 | 0.0 | 0.00 | 0.36 | 0.36 | 11 | 1016.5 | |
| 20260902002016 | 63 | 0.0 | 0.0 | 0.00 | 0.36 | 0.36 | 11 | 1016.5 | |
| 20260902001516 | 63 | 0.0 | 0.0 | 0.00 | 0.36 | 0.36 | 11 | 1016.3 | |
| 20260902001016 | 63 | 0.0 | 0.0 | 0.00 | 0.36 | 0.36 | 11 | 1016.2 | |
| 20260902000516 | 63 | 0.0 | 0.0 | 0.00 | 0.36 | 0.36 | 11 | 1016.1 | |
| 20260902000016 | 63 | 0.0 | 0.0 | 0.00 | 0.36 | 0.36 | 11 | 1016.2 | |
| 20260901235516 | 63 | 0.0 | 0.0 | 0.00 | 0.36 | 0.36 | 11 | 1016.2 | |
| 20260901235016 | 63 | 0.0 | 0.0 | 0.00 | 0.36 | 0.36 | 11 | 1016.1 | |
| 20260901234516 | 63 | 0.0 | 0.0 | 0.00 | 0.36 | 0.36 | 11 | 1016.1 | |
| 20260901234016 | 63 | 0.0 | 0.0 | 0.00 | 0.36 | 0.36 | 11 | 1016.3 | |
| 20260901233536 | 63 | 0.0 | 0.0 | 0.00 | 0.36 | 0.36 | 11 | 1016.4 | |
| 20260901233016 | 63 | 0.0 | 0.0 | 0.00 | 0.36 | 0.36 | 11 | 1016.3 | |
| 20260901232516 | 63 | 0.0 | 0.0 | 0.00 | 0.36 | 0.36 | 11 | 1016.4 | |
| 20260901232016 | 63 | 0.0 | 0.0 | 0.00 | 0.36 | 0.36 | 11 | 1016.4 | |
| 20260901231516 | 63 | 0.0 | 0.0 | 0.00 | 0.36 | 0.36 | 11 | 1016.4 | |
| 20260901231016 | 63 | 0.0 | 0.0 | 0.00 | 0.36 | 0.36 | 11 | 1016.3 | |
| 20260901230516 | 63 | 0.0 | 0.0 | 0.00 | 0.36 | 0.36 | 11 | 1016.2 | |
| 20260901230016 | 63 | 0.0 | 0.0 | 0.00 | 0.36 | 0.36 | 11 | 1016.2 | |
| 20260901225516 | 63 | 0.0 | 0.0 | 0.00 | 0.36 | 0.36 | 11 | 1016.1 | |
| 20260901225016 | 63 | 0.0 | 0.0 | 0.00 | 0.36 | 0.36 | 11 | 1016.0 | |
| 20260901224556 | 63 | 0.0 | 0.0 | 0.00 | 0.36 | 0.36 | 11 | 1016.0 | |
| 20260901224016 | 63 | 0.0 | 0.0 | 0.01 | 0.36 | 0.36 | 11 | 1016.1 | |
| 20260901223516 | 63 | 0.0 | 0.0 | 0.01 | 0.36 | 0.36 | 11 | 1016.0 | |
| 20260901223016 | 63 | 0.0 | 0.0 | 0.01 | 0.36 | 0.36 | 11 | 1016.0 | |
| 20260901222516 | 63 | 0.0 | 0.0 | 0.01 | 0.36 | 0.36 | 11 | 1016.0 | |
| 20260901222016 | 63 | 0.0 | 0.0 | 0.01 | 0.36 | 0.36 | 11 | 1016.0 | |
| 20260901221536 | 63 | 0.0 | 0.0 | 0.01 | 0.36 | 0.36 | 11 | 1016.0 | |
| 20260901221037 | 63 | 0.0 | 1.0 | 0.02 | 0.36 | 0.36 | 11 | 1016.1 | |
| 20260901220516 | 64 | 349 | 0.0 | 1.0 | 0.02 | 0.36 | 0.36 | 11 | 1016.1 |
| 20260901220016 | 64 | 0.0 | 0.0 | 0.02 | 0.36 | 0.36 | 12 | 1016.0 | |
| 20260901215516 | 64 | 0.0 | 0.0 | 0.03 | 0.36 | 0.36 | 12 | 1015.9 | |
| 20260901215016 | 64 | 0.0 | 2.0 | 0.03 | 0.36 | 0.36 | 12 | 1015.9 | |
| 20260901214516 | 64 | 194 | 0.0 | 2.0 | 0.03 | 0.36 | 0.36 | 12 | 1015.9 |
| 20260901214015 | 64 | 310 | 0.0 | 2.0 | 0.02 | 0.35 | 0.35 | 11 | 1015.8 |
| 20260901213516 | 64 | 308 | 0.0 | 4.0 | 0.02 | 0.35 | 0.35 | 11 | 1015.7 |
| 20260901213016 | 65 | 257 | 0.0 | 4.0 | 0.02 | 0.35 | 0.35 | 11 | 1015.7 |